GW4457 Weather Reports


Display with metric or nautical units.
time (UTC)temp
F
wind
direction
speed
MPH
gust
MPH
rain 1hr
in
rain 24hr
in
rain mn
in
humidity
%
barometer
mb
20260503205055 82 116 16.0 21.0 0.00 0.00 0.00 70 1019.2
20260503204553 82 52 13.0 17.0 0.00 0.00 0.00 71 1019.4
20260503204050 82 162 9.0 18.0 0.00 0.00 0.00 71 1019.3
20260503203547 82 140 13.0 21.0 0.00 0.00 0.00 71 1019.4
20260503203044 82 158 15.0 17.0 0.00 0.00 0.00 71 1019.3
20260503202542 82 94 10.0 19.0 0.00 0.00 0.00 71 1019.3
20260503202039 82 77 12.0 21.0 0.00 0.00 0.00 70 1019.3
20260503201537 82 107 15.0 19.0 0.00 0.00 0.00 68 1019.3
20260503201034 83 112 13.0 21.0 0.00 0.00 0.00 68 1019.5
20260503200530 83 76 15.0 19.0 0.00 0.00 0.00 68 1019.3
20260503200027 84 101 15.0 18.0 0.00 0.00 0.00 67 1019.6
20260503195524 83 202 8.0 17.0 0.00 0.00 0.00 69 1019.6
20260503195021 84 113 17.0 23.0 0.00 0.00 0.00 66 1019.6
20260503194518 84 113 15.0 18.0 0.00 0.00 0.00 64 1019.5
20260503194017 84 90 12.0 23.0 0.00 0.00 0.00 66 1019.6
20260503193514 84 82 12.0 21.0 0.00 0.00 0.00 65 1019.4
20260503193009 84 171 13.0 18.0 0.00 0.00 0.00 68 1019.5
20260503192506 85 137 14.0 16.0 0.00 0.00 0.00 63 1019.7
20260503192001 85 74 15.0 19.0 0.00 0.00 0.00 66 1019.8
20260503191459 84 239 12.0 18.0 0.00 0.00 0.00 62 1019.9
20260503190955 84 114 13.0 21.0 0.00 0.00 0.00 65 1019.9
20260503190453 84 129 13.0 24.0 0.00 0.00 0.00 66 1020.0
20260503185950 84 133 17.0 23.0 0.00 0.00 0.00 64 1020.0
20260503185446 84 122 13.0 18.0 0.00 0.00 0.00 67 1019.9
20260503184945 85 119 17.0 22.0 0.00 0.00 0.00 62 1020.1
20260503184442 85 106 11.0 18.0 0.00 0.00 0.00 64 1020.0
20260503183938 84 34 10.0 23.0 0.00 0.00 0.00 67 1020.2
20260503183435 85 121 10.0 18.0 0.00 0.00 0.00 67 1020.3
20260503182932 85 163 15.0 19.0 0.00 0.00 0.00 64 1020.3
20260503182431 86 156 9.0 22.0 0.00 0.00 0.00 63 1020.3
20260503181928 85 89 9.0 19.0 0.00 0.00 0.00 65 1020.2
20260503181425 85 101 11.0 22.0 0.00 0.00 0.00 65 1020.4
20260503180921 86 107 15.0 18.0 0.00 0.00 0.00 64 1020.5
20260503180420 86 114 12.0 17.0 0.00 0.00 0.00 65 1020.4
20260503175917 86 136 17.0 23.0 0.00 0.00 0.00 63 1020.8
20260503175415 85 110 11.0 21.0 0.00 0.00 0.00 66 1020.7
20260503174910 85 133 17.0 21.0 0.00 0.00 0.00 62 1020.8
20260503174409 85 109 13.0 19.0 0.00 0.00 0.00 61 1020.9
20260503173908 86 144 13.0 17.0 0.00 0.00 0.00 63 1021.0
20260503173405 85 127 12.0 19.0 0.00 0.00 0.00 65 1021.1
20260503172901 85 136 12.0 22.0 0.00 0.00 0.00 64 1021.1
20260503172359 86 86 16.0 19.0 0.00 0.00 0.00 64 1021.2
20260503171855 85 94 16.0 22.0 0.00 0.00 0.00 65 1021.2
20260503171352 85 176 13.0 19.0 0.00 0.00 0.00 66 1021.4
20260503170850 86 108 9.0 21.0 0.00 0.00 0.00 64 1021.2
20260503170346 86 109 14.0 19.0 0.00 0.00 0.00 64 1021.2
20260503150738 87 89 13.0 18.0 0.00 0.00 0.00 65 1022.0
20260503150234 87 100 11.0 14.0 0.00 0.00 0.00 64 1022.2
20260503140158 87 214 9.0 15.0 0.00 0.00 0.00 60 1022.3
20260503131128 86 71 13.0 19.0 0.00 0.00 0.00 63 1022.1
20260503130626 85 75 9.0 18.0 0.00 0.00 0.00 65 1022.1
20260503130123 83 109 8.0 13.0 0.00 0.00 0.00 70 1022.1
20260503110516 78 97 9.0 13.0 0.00 0.00 0.00 75 1021.1
20260503090408 75 50 6.0 14.0 0.00 0.00 0.00 79 1020.2
20260503081335 75 88 7.0 11.0 0.00 0.00 0.00 79 1020.2
20260503080831 75 67 9.0 14.0 0.00 0.00 0.00 79 1020.1
20260503080328 75 58 7.0 10.0 0.00 0.00 0.00 79 1019.9
20260503072805 76 84 11.0 13.0 0.00 0.00 0.00 79 1019.9
20260503072304 76 88 6.0 16.0 0.00 0.00 0.00 78 1020.1
20260503071758 76 113 8.0 15.0 0.00 0.00 0.00 79 1020.3
20260503071255 76 104 9.0 14.0 0.00 0.00 0.00 79 1020.2
20260503070751 76 110 5.0 16.0 0.00 0.00 0.00 79 1020.4
20260503070249 76 123 8.0 14.0 0.00 0.00 0.00 79 1020.3
20260503060214 76 72 9.0 14.0 0.00 0.00 0.00 81 1020.9
20260503054701 76 102 12.0 16.0 0.00 0.00 0.00 81 1020.7
20260503054159 76 64 10.0 11.0 0.00 0.00 0.00 80 1021.0
20260503053656 76 109 7.0 14.0 0.00 0.00 0.00 80 1021.2
20260503053155 76 70 9.0 13.0 0.00 0.00 0.00 79 1021.1
20260503052651 76 88 13.0 16.0 0.00 0.00 0.00 79 1021.1
20260503052147 76 70 11.0 14.0 0.00 0.00 0.00 79 1021.0
20260503051642 76 71 9.0 15.0 0.00 0.00 0.00 79 1021.2
20260503051141 76 115 5.0 11.0 0.00 0.00 0.00 80 1021.0
20260503050637 76 56 9.0 13.0 0.00 0.00 0.00 80 1021.1
20260503050134 76 81 8.0 10.0 0.00 0.00 0.00 80 1021.2
20260503045631 76 118 6.0 14.0 0.00 0.00 0.00 80 1021.1
20260503045128 76 57 9.0 14.0 0.00 0.00 0.00 79 1021.1
20260503044625 76 174 8.0 14.0 0.00 0.00 0.00 79 1021.3
20260503044122 76 30 7.0 15.0 0.00 0.00 0.00 79 1021.3
20260503043619 76 75 10.0 14.0 0.00 0.00 0.00 80 1021.5
20260503043116 76 85 7.0 15.0 0.00 0.00 0.00 80 1021.3
20260503042612 76 47 9.0 14.0 0.00 0.00 0.00 79 1021.6
20260503042108 76 77 10.0 15.0 0.00 0.00 0.00 79 1021.5
20260503041605 76 59 11.0 15.0 0.00 0.00 0.00 79 1021.5
20260503041103 76 93 6.0 10.0 0.00 0.00 0.00 79 1021.6
20260503040600 76 19 7.0 15.0 0.00 0.00 0.00 79 1021.6
20260503040057 76 75 9.0 15.0 0.00 0.00 0.00 78 1021.7
20260503035554 76 64 7.0 16.0 0.00 0.00 0.00 79 1021.6
20260503035052 76 77 10.0 13.0 0.00 0.00 0.00 78 1021.8
20260503034548 76 27 8.0 15.0 0.00 0.00 0.00 78 1021.8
20260503034046 76 43 7.0 14.0 0.00 0.00 0.00 78 1021.8
20260503033543 76 97 6.0 13.0 0.00 0.00 0.00 78 1021.7
20260503033041 76 33 6.0 14.0 0.00 0.00 0.00 79 1021.9
20260503032539 76 81 10.0 13.0 0.00 0.00 0.00 79 1021.7
20260503032036 76 70 9.0 13.0 0.00 0.00 0.00 78 1021.8
20260503031534 76 61 6.0 15.0 0.00 0.00 0.00 78 1021.6
20260503031031 76 93 7.0 13.0 0.00 0.00 0.00 78 1021.6
20260503030527 76 56 6.0 14.0 0.00 0.00 0.00 79 1021.8
20260503030025 76 81 9.0 16.0 0.00 0.00 0.00 79 1021.7
20260503025521 77 124 11.0 13.0 0.00 0.00 0.00 79 1021.8
20260503025019 77 82 9.0 13.0 0.00 0.00 0.00 79 1021.8
20260503024515 77 71 5.0 10.0 0.00 0.00 0.00 79 1021.6
20260503024012 77 61 8.0 15.0 0.00 0.00 0.00 78 1021.9
20260503023509 77 91 5.0 13.0 0.00 0.00 0.00 78 1021.7
20260503023006 77 109 7.0 10.0 0.00 0.00 0.00 78 1021.6
20260503022502 77 68 6.0 14.0 0.00 0.00 0.00 78 1021.7
20260503021957 77 74 4.0 15.0 0.00 0.00 0.00 78 1021.5
20260503021454 77 81 10.0 15.0 0.00 0.00 0.00 78 1021.4
20260503020951 77 116 11.0 16.0 0.00 0.00 0.00 78 1021.5
20260503020448 77 80 11.0 17.0 0.00 0.00 0.00 78 1021.5
20260503015945 77 87 10.0 16.0 0.00 0.00 0.00 78 1021.4
20260503015442 77 84 9.0 15.0 0.00 0.00 0.00 78 1021.4
20260503014938 77 111 13.0 18.0 0.00 0.00 0.00 78 1021.1
20260503014435 77 101 10.0 16.0 0.00 0.00 0.00 78 1021.1
20260503013933 78 112 14.0 21.0 0.00 0.00 0.00 78 1021.2
20260503013430 77 92 12.0 18.0 0.00 0.00 0.00 78 1021.0
20260503012927 77 93 9.0 16.0 0.00 0.00 0.00 78 1021.0
20260503012425 77 97 11.0 15.0 0.00 0.00 0.00 78 1021.0
20260503011921 77 130 15.0 18.0 0.00 0.00 0.00 78 1021.0
20260503011418 77 114 13.0 18.0 0.00 0.00 0.00 78 1020.8
20260503010915 78 163 10.0 16.0 0.00 0.00 0.00 79 1020.6
20260503010411 78 126 7.0 16.0 0.00 0.00 0.00 78 1020.9
20260503005908 78 93 8.0 15.0 0.00 0.00 0.00 79 1020.5
20260503005406 78 94 7.0 14.0 0.00 0.00 0.00 78 1020.5
20260503004902 78 114 10.0 16.0 0.00 0.00 0.00 78 1020.5
20260503004359 78 81 12.0 14.0 0.00 0.00 0.00 78 1020.6
20260503003857 78 337 6.0 16.0 0.00 0.00 0.00 78 1020.3
20260503003353 78 58 13.0 15.0 0.00 0.00 0.00 78 1020.3
20260503002850 78 36 9.0 15.0 0.00 0.00 0.00 79 1020.1
20260503002348 78 93 10.0 16.0 0.00 0.00 0.00 79 1020.2
20260503001844 78 86 11.0 21.0 0.00 0.00 0.00 79 1020.2
20260503001340 78 110 12.0 18.0 0.00 0.00 0.00 79 1020.0
20260503000838 78 131 9.0 15.0 0.00 0.00 0.00 79 1019.9
20260503000335 78 101 14.0 16.0 0.00 0.00 0.00 78 1020.0
20260502235832 78 107 12.0 16.0 0.00 0.00 0.00 79 1019.9
20260502235329 78 175 9.0 15.0 0.00 0.00 0.00 80 1020.0
20260502234826 78 93 6.0 11.0 0.00 0.00 0.00 80 1019.9
20260502234323 78 87 8.0 11.0 0.00 0.00 0.00 79 1019.8
20260502233820 78 113 9.0 11.0 0.00 0.00 0.00 78 1019.7
20260502233316 78 173 6.0 15.0 0.00 0.00 0.00 77 1019.8
20260502232813 78 209 6.0 15.0 0.00 0.00 0.00 78 1019.6
20260502232309 78 84 9.0 17.0 0.00 0.00 0.00 78 1019.9
20260502231806 78 98 9.0 16.0 0.00 0.00 0.00 78 1019.7
20260502231304 78 142 9.0 14.0 0.00 0.00 0.00 78 1019.7
20260502230802 78 92 6.0 9.0 0.00 0.00 0.00 78 1019.6
20260502230300 78 124 8.0 11.0 0.00 0.00 0.00 77 1019.5
20260502225756 79 121 10.0 15.0 0.00 0.00 0.00 76 1019.4
20260502225253 79 84 12.0 16.0 0.00 0.00 0.00 76 1019.3
20260502224749 79 121 9.0 15.0 0.00 0.00 0.00 75 1019.4
20260502224246 79 129 9.0 11.0 0.00 0.00 0.00 75 1019.3
20260502223743 79 147 7.0 17.0 0.00 0.00 0.00 75 1019.3
20260502223241 79 109 9.0 13.0 0.00 0.00 0.00 75 1019.4
20260502222739 80 89 9.0 14.0 0.00 0.00 0.00 75 1019.2
20260502222235 80 123 7.0 14.0 0.00 0.00 0.00 74 1019.4
20260502221731 80 67 11.0 18.0 0.00 0.00 0.00 74 1019.5
20260502221228 80 100 8.0 15.0 0.00 0.00 0.00 74 1019.4
20260502220725 80 228 6.0 17.0 0.00 0.00 0.00 75 1019.1
20260502220221 80 92 7.0 15.0 0.00 0.00 0.00 75 1019.4
20260502215718 80 73 8.0 11.0 0.00 0.00 0.00 74 1019.1
20260502215215 80 99 9.0 14.0 0.00 0.00 0.00 74 1019.2
20260502214712 81 168 12.0 17.0 0.00 0.00 0.00 73 1019.0
20260502214209 81 112 9.0 14.0 0.00 0.00 0.00 73 1019.0
20260502213706 81 84 11.0 14.0 0.00 0.00 0.00 72 1018.9
20260502213203 81 86 8.0 15.0 0.00 0.00 0.00 72 1018.9
20260502212702 81 93 9.0 14.0 0.00 0.00 0.00 72 1018.7
20260502212200 81 218 6.0 14.0 0.00 0.00 0.00 73 1018.6
20260502211655 81 98 11.0 15.0 0.00 0.00 0.00 71 1018.5
20260502211153 81 105 13.0 16.0 0.00 0.00 0.00 70 1018.7
20260502210650 81 151 11.0 15.0 0.00 0.00 0.00 72 1018.5
20260502210147 82 81 10.0 18.0 0.00 0.00 0.00 72 1018.7
20260502205644 82 134 10.0 16.0 0.00 0.00 0.00 71 1018.6